This is the latest recevied weather packets stored in our database for station/object OK1FET-14. If no packets are shown the sender has not sent any weather packets the latest 10 day(s).
| Time | Temp. | Humidity | Pressure | Rain* | Wind** | Luminosity | Snow |
|---|---|---|---|---|---|---|---|
| 1788612015 | 21.11° C | 44% | 1021 hPa | - | - | - | - |
| 1788611734 | 21.67° C | 42% | 1021 hPa | - | - | - | - |
| 1788611734 | 21.67° C | 42% | 1021 hPa | - | - | - | - |
| 1788611453 | 21.67° C | 44% | 1021.2 hPa | - | - | - | - |
| 1788611453 | 21.67° C | 44% | 1021.2 hPa | - | - | - | - |
| 1788611453 | 21.67° C | 44% | 1021.2 hPa | - | - | - | - |
| 1788611172 | 20.56° C | 47% | 1021.3 hPa | - | - | - | - |
| 1788611172 | 20.56° C | 47% | 1021.3 hPa | - | - | - | - |
| 1788611172 | 20.56° C | 47% | 1021.3 hPa | - | - | - | - |
| 1788610891 | 19.44° C | 49% | 1021.2 hPa | - | - | - | - |
| 1788610891 | 19.44° C | 49% | 1021.2 hPa | - | - | - | - |
| 1788610891 | 19.44° C | 49% | 1021.2 hPa | - | - | - | - |
| 1788610611 | 19.44° C | 48% | 1021.4 hPa | - | - | - | - |
| 1788610611 | 19.44° C | 48% | 1021.4 hPa | - | - | - | - |
| 1788610611 | 19.44° C | 48% | 1021.4 hPa | - | - | - | - |
| 1788610330 | 20° C | 48% | 1021.3 hPa | - | - | - | - |
| 1788610330 | 20° C | 48% | 1021.3 hPa | - | - | - | - |
| 1788610330 | 20° C | 48% | 1021.3 hPa | - | - | - | - |
| 1788610330 | 20° C | 48% | 1021.3 hPa | - | - | - | - |
| 1788610049 | 19.44° C | 48% | 1021.3 hPa | - | - | - | - |
| 1788610049 | 19.44° C | 48% | 1021.3 hPa | - | - | - | - |
| 1788609768 | 20° C | 48% | 1021.2 hPa | - | - | - | - |
| 1788609768 | 20° C | 48% | 1021.2 hPa | - | - | - | - |
| 1788609487 | 20.56° C | 47% | 1021.5 hPa | - | - | - | - |
| 1788609487 | 20.56° C | 47% | 1021.5 hPa | - | - | - | - |
* Rain since midnight (hover to see other rain measurements)
** Current wind speed in m/s (hover to see current wind gust speed)